Brigham City, UT

11:14 AM MST on December 06, 2019 (GMT -0700)
Brigham City

Weather History for KBMC - August, 2019

Change the Weather History Date:

Tuesday, August 20, 2019

  Actual Average (KLGU) Record (KLGU)
Temperature  
Mean Temperature 76 °F -  
Max Temperature 94 °F 85 °F 96 °F (1960)
Min Temperature 57 °F 51 °F 36 °F (1980)
Cooling Degree Days 10    
Growing Degree Days 26 (Base 50)    
Moisture  
Dew Point 31 °F    
Average Humidity 26    
Maximum Humidity 55    
Minimum Humidity 5    
Precipitation  
Precipitation 0.00 in - - ()
Sea Level Pressure  
Sea Level Pressure 30.05 in    
Wind  
Wind Speed 2 mph ()    
Max Wind Speed 10 mph    
Max Gust Speed -    
Visibility 10.0 miles    
Events      
Averages and records for this station are not official NWS values.
T = Trace of Precipitation, MM = Missing Value Source: Averaged Metar Reports

Daily Weather History Graph

Daily Weather History Graph

Search for Another Location

Airport or City:

Astronomy

Aug. 20, 2019 Rise Set
Actual Time 6:41 AM MDT 8:20 PM MDT
Civil Twilight 6:12 AM MDT 8:49 PM MDT
Nautical Twilight 5:36 AM MDT 9:25 PM MDT
Astronomical Twilight 4:58 AM MDT 10:03 PM MDT
Moon 11:07 PM MDT (8/20) 11:26 AM MDT (8/20)
Length of Visible Light 14h 37m
Length of Day
13h 38m
Waning Gibbous, 77% of the Moon is Illuminated
Aug 20
Waning Gibbous
Aug 23
Last Quarter
Aug 30
New
Sep 5
First Quarter
Sep 13
Full

Hourly Weather History & Observations

Time (MDT) Temp. Dew Point Humidity Pressure Visibility Wind Dir Wind Speed Gust Speed Precip Events Conditions
12:10 AM 67.1 °F 43.7 °F 43% 30.01 in 10.0 mi Calm Calm - N/A   Clear
12:30 AM 68.0 °F 42.1 °F 39% 30.01 in 10.0 mi Calm Calm - N/A   Clear
12:50 AM 67.8 °F 39.6 °F 36% 30.01 in 10.0 mi NW 4.6 mph - N/A   Clear
1:10 AM 66.0 °F 38.1 °F 36% 30.02 in 10.0 mi NNW 3.5 mph - N/A   Clear
1:30 AM 66.4 °F 37.6 °F 35% 30.02 in 10.0 mi Calm Calm - N/A   Clear
1:50 AM 63.3 °F 42.3 °F 46% 30.02 in 10.0 mi Calm Calm - N/A   Clear
2:10 AM 64.0 °F 43.0 °F 46% 30.03 in 10.0 mi Calm Calm - N/A   Clear
2:50 AM 65.1 °F 42.8 °F 44% 30.04 in 10.0 mi Calm Calm - N/A   Clear
3:10 AM 65.5 °F 39.0 °F 38% 30.04 in 10.0 mi Calm Calm - N/A   Clear
3:30 AM 65.1 °F 42.1 °F 43% 30.05 in 10.0 mi Calm Calm - N/A   Clear
3:50 AM 63.5 °F 41.4 °F 44% 30.05 in 10.0 mi Calm Calm - N/A   Clear
4:10 AM 62.8 °F 42.3 °F 47% 30.05 in 10.0 mi NW 3.5 mph - N/A   Clear
4:30 AM 62.4 °F 39.4 °F 43% 30.06 in 10.0 mi Calm Calm - N/A   Clear
4:50 AM 59.7 °F 43.7 °F 55% 30.06 in 10.0 mi Calm Calm - N/A   Clear
5:10 AM 61.3 °F 41.9 °F 49% 30.06 in 10.0 mi Calm Calm - N/A   Clear
5:30 AM 61.2 °F 42.3 °F 50% 30.06 in 10.0 mi Calm Calm - N/A   Clear
5:50 AM 59.4 °F 43.3 °F 55% 30.07 in 10.0 mi Calm Calm - N/A   Clear
6:10 AM 58.6 °F 42.1 °F 54% 30.07 in 10.0 mi Calm Calm - N/A   Clear
6:30 AM 58.6 °F 39.0 °F 48% 30.07 in 10.0 mi North 3.5 mph - N/A   Clear
6:50 AM 57.9 °F 37.8 °F 47% 30.08 in 10.0 mi Calm Calm - N/A   Clear
7:10 AM 57.9 °F 37.0 °F 46% 30.08 in 10.0 mi WNW 3.5 mph - N/A   Clear
7:30 AM 58.3 °F 36.3 °F 44% 30.09 in 10.0 mi Calm Calm - N/A   Clear
7:50 AM 58.3 °F 36.5 °F 44% 30.10 in 10.0 mi NW 3.5 mph - N/A   Clear
8:10 AM 59.2 °F 38.1 °F 46% 30.10 in 10.0 mi NNW 3.5 mph - N/A   Clear
8:30 AM 61.5 °F 38.7 °F 43% 30.11 in 10.0 mi Calm Calm - N/A   Clear
8:50 AM 64.4 °F 37.2 °F 37% 30.11 in 10.0 mi Calm Calm - N/A   Clear
9:10 AM 67.5 °F 36.1 °F 32% 30.11 in 10.0 mi North 4.6 mph - N/A   Clear
9:30 AM 70.0 °F 36.9 °F 30% 30.11 in 10.0 mi Calm Calm - N/A   Clear
9:50 AM 73.0 °F 37.8 °F 28% 30.12 in 10.0 mi Calm Calm - N/A   Clear
10:10 AM 74.7 °F 35.8 °F 24% 30.12 in 10.0 mi Calm Calm - N/A   Clear
10:30 AM 76.6 °F 34.2 °F 21% 30.12 in 10.0 mi Calm Calm - N/A   Clear
10:50 AM 79.0 °F 31.1 °F 17% 30.12 in 10.0 mi NNE 3.5 mph - N/A   Clear
11:10 AM 81.1 °F 25.9 °F 13% 30.11 in 10.0 mi ENE 3.5 mph - N/A   Clear
11:30 AM 83.3 °F 20.3 °F 10% 30.11 in 10.0 mi Calm Calm - N/A   Clear
11:50 AM 85.6 °F 20.8 °F 9% 30.11 in 10.0 mi SW 4.6 mph - N/A   Clear
12:10 PM 86.5 °F 22.3 °F 10% 30.10 in 10.0 mi Calm Calm - N/A   Clear
12:30 PM 87.3 °F 22.5 °F 9% 30.10 in 10.0 mi Calm Calm - N/A   Clear
12:50 PM 88.3 °F 21.0 °F 9% 30.10 in 10.0 mi West 3.5 mph - N/A   Clear
1:10 PM 89.2 °F 21.2 °F 8% 30.10 in 10.0 mi WSW 3.5 mph - N/A   Clear
1:30 PM 90.9 °F 16.0 °F 6% 30.09 in 10.0 mi WSW 6.9 mph - N/A   Clear
1:50 PM 91.4 °F 17.8 °F 7% 30.08 in 10.0 mi WSW 9.2 mph - N/A   Clear
2:10 PM 92.1 °F 19.2 °F 7% 30.08 in 10.0 mi South 10.4 mph - N/A   Clear
2:30 PM 92.1 °F 19.8 °F 7% 30.07 in 10.0 mi Calm Calm - N/A   Clear
2:50 PM 92.3 °F 20.8 °F 7% 30.07 in 10.0 mi West 5.8 mph - N/A   Clear
3:30 PM 93.7 °F 17.8 °F 6% 30.05 in 10.0 mi WSW 4.6 mph - N/A   Clear
3:50 PM 94.1 °F 19.0 °F 7% 30.05 in 10.0 mi SSW 9.2 mph - N/A   Clear
4:10 PM 94.5 °F 16.2 °F 6% 30.04 in 10.0 mi South 8.1 mph - N/A   Clear
4:30 PM 94.6 °F 15.4 °F 6% 30.03 in 10.0 mi South 8.1 mph - N/A   Clear
4:50 PM 94.8 °F 14.5 °F 5% 30.03 in 10.0 mi SW 6.9 mph - N/A   Clear
5:10 PM 94.5 °F 15.1 °F 5% 30.03 in 10.0 mi SW 6.9 mph - N/A   Clear
5:30 PM 94.1 °F 14.4 °F 5% 30.02 in 10.0 mi WSW 5.8 mph - N/A   Clear
5:50 PM 93.6 °F 14.9 °F 6% 30.02 in 10.0 mi Calm Calm - N/A   Clear
6:10 PM 93.4 °F 15.4 °F 6% 30.02 in 10.0 mi WSW 3.5 mph - N/A   Clear
6:30 PM 93.4 °F 15.4 °F 6% 30.01 in 10.0 mi Calm Calm - N/A   Clear
6:50 PM 93.2 °F 15.4 °F 6% 30.01 in 10.0 mi SSE 3.5 mph - N/A   Clear
7:10 PM 92.7 °F 16.0 °F 6% 30.01 in 10.0 mi WNW 3.5 mph - N/A   Clear
7:30 PM 91.8 °F 17.1 °F 6% 30.01 in 10.0 mi Calm Calm - N/A   Clear
7:50 PM 91.4 °F 16.2 °F 6% 30.01 in 10.0 mi Calm Calm - N/A   Clear
8:10 PM 89.6 °F 21.2 °F 8% 30.01 in 10.0 mi NW 3.5 mph - N/A   Clear
8:30 PM 85.5 °F 29.8 °F 13% 30.01 in 10.0 mi Calm Calm - N/A   Clear
8:50 PM 82.8 °F 39.0 °F 21% 30.01 in 10.0 mi Calm Calm - N/A   Clear
9:10 PM 77.5 °F 42.3 °F 28% 30.01 in 10.0 mi SE 3.5 mph - N/A   Clear
9:30 PM 75.7 °F 40.6 °F 28% 30.01 in 10.0 mi SSE 3.5 mph - N/A   Clear
9:50 PM 74.3 °F 40.5 °F 30% 30.01 in 10.0 mi SE 4.6 mph - N/A   Clear
10:10 PM 73.0 °F 36.7 °F 27% 30.01 in 10.0 mi Calm Calm - N/A   Clear
10:30 PM 72.5 °F 34.5 °F 25% 30.01 in 10.0 mi WNW 3.5 mph - N/A   Clear
10:50 PM 70.9 °F 42.1 °F 35% 30.01 in 10.0 mi NNW 3.5 mph - N/A   Clear
11:10 PM 68.0 °F 43.5 °F 41% 30.01 in 10.0 mi NW 5.8 mph - N/A   Clear
11:30 PM 66.6 °F 41.7 °F 40% 30.02 in 10.0 mi Calm Calm - N/A   Clear
11:50 PM 67.1 °F 40.5 °F 38% 30.02 in 10.0 mi ESE 5.8 mph - N/A   Clear